Location: Mannheim
(49.4880°N, 8.4650°E)
Time: 21:55:01
(UTC+02:00)

ISS - Pass Details

Date: 26 May 2023
Orbit: 412 x 419 km, 51.6° (Epoch: 28 May)

Event Time Altitude Azimuth Distance (km) Brightness Sun altitude
Rises 22:46:16 0° 288° (WNW) 2,357 1.0 -11.2°
Reaches altitude 10° 22:48:28 10° 279° (W) 1,493 -0.3 -11.4°
Maximum altitude 22:51:32 34° 213° (SSW) 710 -2.8 -11.7°
Enters shadow 22:53:19 20° 160° (SSE) 1,042 -2.4 -11.9°
